Time,TemperatureF,DewpointF,PressureIn,WindDirection,WindDirectionDegrees,WindSpeedMPH,WindSpeedGustMPH,Humidity,HourlyPrecipIn,Conditions,Clouds,dailyrainin,SoftwareType,DateUTC
2013-02-19 00:09:00,-999.0,-99.9,29.52,SSW,199,22.0,-999.0,-999,-99.99,,,0.00,weatherlink.com 1.10,2013-02-19 05:09:00,
2013-02-19 00:23:00,-999.0,-99.9,29.52,South,175,23.0,-999.0,-999,-99.99,,,0.00,weatherlink.com 1.10,2013-02-19 05:23:00,
2013-02-19 00:37:00,-999.0,-99.9,29.50,SSW,196,27.0,-999.0,-999,-99.99,,,0.00,weatherlink.com 1.10,2013-02-19 05:37:00,
2013-02-19 00:52:00,-999.0,-99.9,29.49,SSE,163,21.0,-999.0,-999,-99.99,,,0.00,weatherlink.com 1.10,2013-02-19 05:52:00,
2013-02-19 01:07:00,-999.0,-99.9,29.48,South,184,27.0,-999.0,-999,-99.99,,,0.00,weatherlink.com 1.10,2013-02-19 06:07:00,
2013-02-19 01:22:00,-999.0,-99.9,29.47,South,181,20.0,-999.0,-999,-99.99,,,0.00,weatherlink.com 1.10,2013-02-19 06:22:00,
2013-02-19 01:38:00,-999.0,-99.9,29.46,SSW,193,24.0,-999.0,-999,-99.99,,,0.00,weatherlink.com 1.10,2013-02-19 06:38:00,
2013-02-19 01:52:00,-999.0,-99.9,29.46,SSW,192,28.0,-999.0,-999,-99.99,,,0.00,weatherlink.com 1.10,2013-02-19 06:52:00,
2013-02-19 02:07:00,-999.0,-99.9,29.45,SSW,196,28.0,-999.0,-999,-99.99,,,0.00,weatherlink.com 1.10,2013-02-19 07:07:00,
2013-02-19 02:22:00,-999.0,-99.9,29.44,SSW,207,25.0,-999.0,-999,-99.99,,,0.00,weatherlink.com 1.10,2013-02-19 07:22:00,
2013-02-19 02:37:00,-999.0,-99.9,29.44,SSW,196,22.0,-999.0,-999,-99.99,,,0.00,weatherlink.com 1.10,2013-02-19 07:37:00,
2013-02-19 02:52:00,-999.0,-99.9,29.45,SSW,205,25.0,-999.0,-999,-99.99,,,0.00,weatherlink.com 1.10,2013-02-19 07:52:00,
2013-02-19 03:07:00,-999.0,-99.9,29.47,West,259,34.0,-999.0,-999,-99.99,,,0.00,weatherlink.com 1.10,2013-02-19 08:07:00,
2013-02-19 03:22:00,-999.0,-99.9,29.48,West,281,28.0,-999.0,-999,-99.99,,,0.00,weatherlink.com 1.10,2013-02-19 08:22:00,
2013-02-19 03:38:00,-999.0,-99.9,29.50,West,263,22.0,-999.0,-999,-99.99,,,0.00,weatherlink.com 1.10,2013-02-19 08:38:00,
2013-02-19 03:52:00,-999.0,-99.9,29.51,WSW,257,23.0,-999.0,-999,-99.99,,,0.00,weatherlink.com 1.10,2013-02-19 08:52:00,
2013-02-19 04:07:00,-999.0,-99.9,29.51,West,276,22.0,-999.0,-999,-99.99,,,0.00,weatherlink.com 1.10,2013-02-19 09:07:00,
2013-02-19 04:22:00,-999.0,-99.9,29.52,WSW,248,18.0,-999.0,-999,-99.99,,,0.00,weatherlink.com 1.10,2013-02-19 09:22:00,
2013-02-19 04:37:00,-999.0,-99.9,29.52,West,269,22.0,-999.0,-999,-99.99,,,0.00,weatherlink.com 1.10,2013-02-19 09:37:00,
2013-02-19 04:52:00,-999.0,-99.9,29.54,WSW,239,16.0,-999.0,-999,-99.99,,,0.00,weatherlink.com 1.10,2013-02-19 09:52:00,
2013-02-19 05:07:00,-999.0,-99.9,29.55,West,259,30.0,-999.0,-999,-99.99,,,0.00,weatherlink.com 1.10,2013-02-19 10:07:00,
2013-02-19 05:23:00,-999.0,-99.9,29.56,West,275,23.0,-999.0,-999,-99.99,,,0.00,weatherlink.com 1.10,2013-02-19 10:23:00,
2013-02-19 05:37:00,-999.0,-99.9,29.58,WSW,242,30.0,-999.0,-999,-99.99,,,0.00,weatherlink.com 1.10,2013-02-19 10:37:00,
2013-02-19 05:53:00,-999.0,-99.9,29.59,West,273,29.0,-999.0,-999,-99.99,,,0.00,weatherlink.com 1.10,2013-02-19 10:53:00,
2013-02-19 06:08:00,-999.0,-99.9,29.60,WSW,252,20.0,-999.0,-999,-99.99,,,0.00,weatherlink.com 1.10,2013-02-19 11:08:00,
2013-02-19 06:22:00,-999.0,-99.9,29.60,SW,236,23.0,-999.0,-999,-99.99,,,0.00,weatherlink.com 1.10,2013-02-19 11:22:00,
2013-02-19 06:38:00,-999.0,-99.9,29.61,WNW,283,22.0,-999.0,-999,-99.99,,,0.00,weatherlink.com 1.10,2013-02-19 11:38:00,
2013-02-19 06:52:00,-999.0,-99.9,29.61,WSW,255,29.0,-999.0,-999,-99.99,,,0.00,weatherlink.com 1.10,2013-02-19 11:52:00,
2013-02-19 07:07:00,-999.0,-99.9,29.63,WSW,258,30.0,-999.0,-999,-99.99,,,0.00,weatherlink.com 1.10,2013-02-19 12:07:00,
2013-02-19 07:23:00,-999.0,-99.9,29.63,SW,234,26.0,-999.0,-999,-99.99,,,0.00,weatherlink.com 1.10,2013-02-19 12:23:00,
2013-02-19 07:37:00,-999.0,-99.9,29.64,WSW,251,25.0,-999.0,-999,-99.99,,,0.00,weatherlink.com 1.10,2013-02-19 12:37:00,
2013-02-19 07:52:00,-999.0,-99.9,29.65,WSW,252,25.0,-999.0,-999,-99.99,,,0.00,weatherlink.com 1.10,2013-02-19 12:52:00,
2013-02-19 08:08:00,-999.0,-99.9,29.67,WNW,289,30.0,-999.0,-999,-99.99,,,0.00,weatherlink.com 1.10,2013-02-19 13:08:00,
2013-02-19 08:23:00,-999.0,-99.9,29.67,WSW,256,25.0,-999.0,-999,-99.99,,,0.00,weatherlink.com 1.10,2013-02-19 13:23:00,
2013-02-19 08:37:00,-999.0,-99.9,29.68,West,261,20.0,-999.0,-999,-99.99,,,0.00,weatherlink.com 1.10,2013-02-19 13:37:00,
2013-02-19 08:53:00,-999.0,-99.9,29.68,WSW,257,28.0,-999.0,-999,-99.99,,,0.00,weatherlink.com 1.10,2013-02-19 13:53:00,
2013-02-19 09:07:00,-999.0,-99.9,29.68,WSW,254,17.0,-999.0,-999,-99.99,,,0.00,weatherlink.com 1.10,2013-02-19 14:07:00,
2013-02-19 09:23:00,-999.0,-99.9,29.68,WSW,251,22.0,-999.0,-999,-99.99,,,0.00,weatherlink.com 1.10,2013-02-19 14:23:00,
2013-02-19 09:37:00,-999.0,-99.9,29.69,West,265,27.0,-999.0,-999,-99.99,,,0.00,weatherlink.com 1.10,2013-02-19 14:37:00,
2013-02-19 09:52:00,-999.0,-99.9,29.69,WSW,256,23.0,-999.0,-999,-99.99,,,0.00,weatherlink.com 1.10,2013-02-19 14:52:00,
2013-02-19 10:06:00,-999.0,-99.9,29.70,WSW,250,23.0,-999.0,-999,-99.99,,,0.00,weatherlink.com 1.10,2013-02-19 15:06:00,
2013-02-19 10:21:00,-999.0,-99.9,29.70,WSW,244,22.0,-999.0,-999,-99.99,,,0.00,weatherlink.com 1.10,2013-02-19 15:21:00,
2013-02-19 10:36:00,-999.0,-99.9,29.70,WSW,246,24.0,-999.0,-999,-99.99,,,0.00,weatherlink.com 1.10,2013-02-19 15:36:00,
2013-02-19 10:51:00,-999.0,-99.9,29.70,West,264,38.0,-999.0,-999,-99.99,,,0.00,weatherlink.com 1.10,2013-02-19 15:51:00,
2013-02-19 11:06:00,-999.0,-99.9,29.71,West,260,29.0,-999.0,-999,-99.99,,,0.00,weatherlink.com 1.10,2013-02-19 16:06:00,
2013-02-19 11:21:00,-999.0,-99.9,29.72,West,262,34.0,-999.0,-999,-99.99,,,0.00,weatherlink.com 1.10,2013-02-19 16:21:00,
2013-02-19 11:36:00,-999.0,-99.9,29.73,WSW,251,33.0,-999.0,-999,-99.99,,,0.00,weatherlink.com 1.10,2013-02-19 16:36:00,
2013-02-19 11:53:00,-999.0,-99.9,29.73,WSW,258,21.0,-999.0,-999,-99.99,,,0.00,weatherlink.com 1.10,2013-02-19 16:53:00,
2013-02-19 12:07:00,-999.0,-99.9,29.73,West,262,25.0,-999.0,-999,-99.99,,,0.00,weatherlink.com 1.10,2013-02-19 17:07:00,
2013-02-19 12:36:00,-999.0,-99.9,29.74,West,266,32.0,-999.0,-999,-99.99,,,0.00,weatherlink.com 1.10,2013-02-19 17:36:00,
2013-02-19 12:51:00,-999.0,-99.9,29.74,WSW,258,23.0,-999.0,-999,-99.99,,,0.00,weatherlink.com 1.10,2013-02-19 17:51:00,
2013-02-19 13:07:00,-999.0,-99.9,29.74,West,261,30.0,-999.0,-999,-99.99,,,0.00,weatherlink.com 1.10,2013-02-19 18:07:00,
2013-02-19 13:22:00,-999.0,-99.9,29.74,West,265,25.0,-999.0,-999,-99.99,,,0.00,weatherlink.com 1.10,2013-02-19 18:22:00,
2013-02-19 13:36:00,-999.0,-99.9,29.74,West,269,21.0,-999.0,-999,-99.99,,,0.00,weatherlink.com 1.10,2013-02-19 18:36:00,
2013-02-19 13:51:00,-999.0,-99.9,29.74,West,266,21.0,-999.0,-999,-99.99,,,0.00,weatherlink.com 1.10,2013-02-19 18:51:00,
2013-02-19 14:06:00,-999.0,-99.9,29.75,WSW,253,22.0,-999.0,-999,-99.99,,,0.00,weatherlink.com 1.10,2013-02-19 19:06:00,
2013-02-19 14:21:00,-999.0,-99.9,29.75,West,273,30.0,-999.0,-999,-99.99,,,0.00,weatherlink.com 1.10,2013-02-19 19:21:00,
2013-02-19 14:37:00,-999.0,-99.9,29.77,West,259,32.0,-999.0,-999,-99.99,,,0.00,weatherlink.com 1.10,2013-02-19 19:37:00,
2013-02-19 14:51:00,-999.0,-99.9,29.78,West,259,23.0,-999.0,-999,-99.99,,,0.00,weatherlink.com 1.10,2013-02-19 19:51:00,
2013-02-19 15:06:00,-999.0,-99.9,29.79,West,274,18.0,-999.0,-999,-99.99,,,0.00,weatherlink.com 1.10,2013-02-19 20:06:00,
2013-02-19 15:21:00,-999.0,-99.9,29.80,West,271,22.0,-999.0,-999,-99.99,,,0.00,weatherlink.com 1.10,2013-02-19 20:21:00,
2013-02-19 15:37:00,-999.0,-99.9,29.81,West,263,23.0,-999.0,-999,-99.99,,,0.00,weatherlink.com 1.10,2013-02-19 20:37:00,
2013-02-19 15:52:00,-999.0,-99.9,29.81,West,261,25.0,-999.0,-999,-99.99,,,0.00,weatherlink.com 1.10,2013-02-19 20:52:00,
2013-02-19 16:07:00,-999.0,-99.9,29.82,West,269,27.0,-999.0,-999,-99.99,,,0.00,weatherlink.com 1.10,2013-02-19 21:07:00,
2013-02-19 16:22:00,-999.0,-99.9,29.83,West,263,19.0,-999.0,-999,-99.99,,,0.00,weatherlink.com 1.10,2013-02-19 21:22:00,
2013-02-19 16:37:00,-999.0,-99.9,29.84,WSW,246,21.0,-999.0,-999,-99.99,,,0.00,weatherlink.com 1.10,2013-02-19 21:37:00,
2013-02-19 16:52:00,-999.0,-99.9,29.85,West,263,14.0,-999.0,-999,-99.99,,,0.00,weatherlink.com 1.10,2013-02-19 21:52:00,
2013-02-19 17:07:00,-999.0,-99.9,29.86,West,261,14.0,-999.0,-999,-99.99,,,0.00,weatherlink.com 1.10,2013-02-19 22:07:00,
2013-02-19 17:22:00,-999.0,-99.9,29.87,West,276,25.0,-999.0,-999,-99.99,,,0.00,weatherlink.com 1.10,2013-02-19 22:22:00,
2013-02-19 17:37:00,-999.0,-99.9,29.88,West,263,23.0,-999.0,-999,-99.99,,,0.00,weatherlink.com 1.10,2013-02-19 22:37:00,
2013-02-19 17:52:00,-999.0,-99.9,29.89,WSW,244,28.0,-999.0,-999,-99.99,,,0.00,weatherlink.com 1.10,2013-02-19 22:52:00,
2013-02-19 18:07:00,-999.0,-99.9,29.90,West,259,18.0,-999.0,-999,-99.99,,,0.00,weatherlink.com 1.10,2013-02-19 23:07:00,
2013-02-19 18:22:00,-999.0,-99.9,29.91,West,259,15.0,-999.0,-999,-99.99,,,0.00,weatherlink.com 1.10,2013-02-19 23:22:00,
2013-02-19 18:37:00,-999.0,-99.9,29.92,WSW,251,21.0,-999.0,-999,-99.99,,,0.00,weatherlink.com 1.10,2013-02-19 23:37:00,
2013-02-19 18:52:00,-999.0,-99.9,29.92,West,267,18.0,-999.0,-999,-99.99,,,0.00,weatherlink.com 1.10,2013-02-19 23:52:00,
2013-02-19 19:07:00,-999.0,-99.9,29.93,West,265,21.0,-999.0,-999,-99.99,,,0.00,weatherlink.com 1.10,2013-02-20 00:07:00,
2013-02-19 19:22:00,-999.0,-99.9,29.94,WSW,254,15.0,-999.0,-999,-99.99,,,0.00,weatherlink.com 1.10,2013-02-20 00:22:00,
2013-02-19 19:37:00,-999.0,-99.9,29.95,West,274,12.0,-999.0,-999,-99.99,,,0.00,weatherlink.com 1.10,2013-02-20 00:37:00,
2013-02-19 19:52:00,-999.0,-99.9,29.95,West,275,16.0,-999.0,-999,-99.99,,,0.00,weatherlink.com 1.10,2013-02-20 00:52:00,
2013-02-19 20:07:00,-999.0,-99.9,29.95,West,267,27.0,-999.0,-999,-99.99,,,0.00,weatherlink.com 1.10,2013-02-20 01:07:00,
2013-02-19 20:22:00,-999.0,-99.9,29.96,West,263,18.0,-999.0,-999,-99.99,,,0.00,weatherlink.com 1.10,2013-02-20 01:22:00,
2013-02-19 20:37:00,-999.0,-99.9,29.96,West,279,19.0,-999.0,-999,-99.99,,,0.00,weatherlink.com 1.10,2013-02-20 01:37:00,
2013-02-19 20:52:00,-999.0,-99.9,29.97,West,277,15.0,-999.0,-999,-99.99,,,0.00,weatherlink.com 1.10,2013-02-20 01:52:00,
2013-02-19 21:07:00,-999.0,-99.9,29.97,WNW,291,18.0,-999.0,-999,-99.99,,,0.00,weatherlink.com 1.10,2013-02-20 02:07:00,
2013-02-19 21:22:00,-999.0,-99.9,29.98,West,268,8.0,-999.0,-999,-99.99,,,0.00,weatherlink.com 1.10,2013-02-20 02:22:00,
2013-02-19 21:37:00,-999.0,-99.9,29.98,West,267,11.0,-999.0,-999,-99.99,,,0.00,weatherlink.com 1.10,2013-02-20 02:37:00,
2013-02-19 21:52:00,-999.0,-99.9,29.98,West,271,18.0,-999.0,-999,-99.99,,,0.00,weatherlink.com 1.10,2013-02-20 02:52:00,
2013-02-19 22:07:00,-999.0,-99.9,29.98,West,268,12.0,-999.0,-999,-99.99,,,0.00,weatherlink.com 1.10,2013-02-20 03:07:00,
2013-02-19 22:22:00,-999.0,-99.9,29.98,WSW,254,17.0,-999.0,-999,-99.99,,,0.00,weatherlink.com 1.10,2013-02-20 03:22:00,
2013-02-19 22:37:00,-999.0,-99.9,29.99,WSW,250,19.0,-999.0,-999,-99.99,,,0.00,weatherlink.com 1.10,2013-02-20 03:37:00,
2013-02-19 22:52:00,-999.0,-99.9,29.99,West,265,15.0,-999.0,-999,-99.99,,,0.00,weatherlink.com 1.10,2013-02-20 03:52:00,
2013-02-19 23:07:00,-999.0,-99.9,29.99,West,269,15.0,-999.0,-999,-99.99,,,0.00,weatherlink.com 1.10,2013-02-20 04:07:00,
2013-02-19 23:22:00,-999.0,-99.9,29.99,WSW,251,17.0,-999.0,-999,-99.99,,,0.00,weatherlink.com 1.10,2013-02-20 04:22:00,
2013-02-19 23:37:00,-999.0,-99.9,29.98,West,269,15.0,-999.0,-999,-99.99,,,0.00,weatherlink.com 1.10,2013-02-20 04:37:00,
2013-02-19 23:52:00,-999.0,-99.9,29.98,West,261,18.0,-999.0,-999,-99.99,,,0.00,weatherlink.com 1.10,2013-02-20 04:52:00,